CAPE
1507 1143 983 354 441 893 1652 2167 2200 2180 2175 2312 2318 2278 2176 2153 1973 1724 1307 1563 2569 2584 2707 2063 2113 1839 1178 1012 1097 1132 1510 1646 2694 2405 1571 1451 1948 2065 1594 1676 1221 909 1259
1258 686 687 1351 1623 2060 2302 2400 2526 2616 2375 2062 1033 763 1097 1628 2271 2074 1838 1931 2352 2750 2605 2703 1435 752 988 1129 1489 1684 1702 2225 2559 1937 1955 1795 1772 1732 1706 1084 1152 766 838
1636 523 1545 2290 2271 2300 2079 2149 2056 1601 1699 836 781 768 713 620 993 1977 2336 2101 2107 2643 2377 2312 1703 1365 1433 1253 1280 1366 1413 1433 1356 1551 1836 1856 1756 1715 1981 1888 1051 883 644
2235 1105 1852 2288 1996 2011 1843 2037 2069 1969 1872 1160 929 509 469 510 895 1872 2238 2341 2093 2380 1813 1906 2083 1760 1313 1251 1143 1215 1286 1341 1290 1156 1428 1502 1847 1911 1391 1149 1709 1089 726
2139 2043 1918 2294 2863 2236 1568 1742 1760 1785 1516 1120 389 451 573 588 726 1102 1514 1419 1373 1329 1571 1665 1890 1495 1061 973 1022 871 1073 976 902 1108 1250 1359 1379 1761 1917 939 1152 915 844
2250 2307 2088 2376 2491 2022 2267 1666 1803 1247 1074 1128 326 200 942 610 709 545 716 456 404 477 760 1147 1203 789 887 673 768 494 501 465 439 383 439 737 1114 1225 2019 1730 1201 1162 1269
2177 2635 1540 1869 1414 2441 2810 2755 2046 1238 1001 1109 722 449 339 718 615 389 242 184 60 85 197 387 819 613 446 864 852 476 389 346 306 236 161 174 258 868 1051 1727 1193 1101 1203
2117 1727 2082 2059 945 2450 3626 2872 2471 1784 1174 1135 642 397 112 108 108 257 298 202 77 176 59 63 266 667 519 682 758 542 393 433 394 202 148 156 107 223 678 858 1531 1033 1132
1369 2021 2407 2099 1275 2492 2374 3180 2626 2454 1755 1451 1129 459 350 226 146 68 85 50 148 275 207 216 287 413 457 186 577 755 474 785 464 285 100 64 49 64 139 539 662 1133 850
2004 1852 2299 2241 2300 2150 2831 3035 2647 2353 2379 1878 1257 492 325 212 357 273 150 53 60 138 176 237 380 281 167 269 225 624 666 802 439 353 184 77 44 31 45 200 597 632 594
1935 1569 1989 2489 2800 2747 2823 3132 3365 3141 2928 2826 1686 875 169 214 223 199 103 68 77 83 139 138 92 123 175 173 494 528 554 520 446 347 242 162 135 99 51 76 415 669 611
1744 2035 1816 1903 2301 2710 2751 2873 3277 3162 3209 2579 1936 221 74 14 56 127 89 64 79 90 100 98 111 143 160 160 222 229 459 489 348 300 231 181 148 135 106 78 142 717 256
1410 1617 1868 1899 1595 1919 2965 3081 3164 3362 3389 2888 2661 326 32 35 37 14 33 25 72 93 41 100 99 79 62 282 407 256 279 269 204 212 175 129 138 140 87 122 90 331 702
1485 1745 1339 1068 1077 2247 2500 2947 2954 3016 3256 3195 2404 672 144 66 48 103 31 50 10 71 81 121 46 42 112 148 185 245 214 166 127 135 124 42 26 29 71 94 114 140 407
1172 1160 1444 1698 1744 1765 2067 2381 1990 2238 2248 1972 2138 680 955 173 105 154 24 33 63 53 112 58 66 58 102 71 220 231 100 81 58 44 1 0 0 9 40 77 110 119 169
1497 1550 1601 1851 1801 1836 1699 1628 1216 1404 1911 2217 2170 1720 1731 452 235 193 48 84 68 17 121 89 8 49 77 67 173 134 155 104 52 24 0 0 0 0 10 93 104 74 120
1873 1887 1645 1679 1681 1595 1534 1636 2275 2880 2888 2550 2309 2148 2028 1512 291 272 94 68 83 88 115 6 17 51 42 126 301 53 174 222 116 5 0 0 0 4 0 6 45 59 113
2309 2192 2050 1830 1820 1833 2365 3135 2873 2408 2247 2202 2242 2337 2228 1381 690 373 180 206 138 128 50 2 11 3 32 151 182 170 213 140 191 6 0 0 0 0 1 3 4 0 71
2591 2389 2146 2204 2660 3023 2554 2219 2113 1978 1987 2019 2129 2493 2432 1764 1140 896 361 163 232 123 7 1 10 5 5 84 128 174 238 169 99 18 1 0 0 0 0 2 2 0 0
2786 2461 2751 2415 2069 1827 1727 1872 1961 2077 2268 2336 2319 1935 2020 1838 1315 1291 480 126 230 51 0 4 14 0 27 49 63 71 94 87 92 64 47 31 0 0 0 0 0 0 0
2942 2274 1785 1767 1784 1750 1001 1049 1227 1167 1493 1385 1387 1755 1530 1188 1420 894 376 133 67 91 8 0 7 6 0 16 62 75 94 130 113 77 165 79 38 31 2 0 0 0 0
1620 1580 1708 1591 1113 1061 1030 1164 1089 916 1598 1613 1347 1224 694 805 864 704 427 136 86 56 13 0 0 0 19 8 35 42 41 89 75 37 28 85 51 8 6 10 0 0 0
1933 1622 881 624 649 804 1219 1126 862 1364 743 578 386 279 439 589 724 545 231 146 48 52 2 0 0 1 11 0 7 10 15 46 26 22 37 65 15 32 11 10 0 0 0
1636 914 564 264 519 893 1101 1065 966 950 840 574 172 40 166 510 511 311 323 115 100 20 0 0 0 0 1 1 0 3 10 13 15 13 6 20 2 10 15 13 0 0 0
1186 873 435 109 187 368 557 642 762 390 334 609 294 25 114 226 158 44 195 98 81 10 0 0 0 0 0 0 0 4 1 6 9 26 7 5 1 21 12 2 5 0 0
1125 572 16 0 24 76 166 327 594 426 171 142 310 40 23 33 391 188 119 47 64 12 0 0 0 0 0 0 0 3 45 0 4 6 8 2 0 0 18 0 9 4 0
CIN
-39 -60 -79 -39 -66 -75 -46 -41 -31 -30 -34 -29 -25 -22 -17 -18 -29 -37 -23 -88 -42 -38 -21 -30 -8 -29 -51 -47 -40 -50 -22 -2 -0 -0 -6 -8 -4 -5 -6 -1 -3 -0 -1
-64 -86 -91 -55 -46 -42 -33 -36 -26 -23 -24 -21 -40 -63 -47 -35 -33 -43 -33 -41 -63 -29 -19 -19 -43 -81 -61 -53 -26 -16 -8 -2 -1 -0 -0 -2 -3 -7 -4 -12 -0 -0 -0
-55 -38 -52 -32 -32 -45 -53 -54 -50 -54 -33 -52 -63 -71 -86 -76 -48 -58 -43 -68 -32 -43 -29 -33 -49 -52 -38 -34 -27 -14 -13 -24 -23 -18 -2 -3 -3 -5 -1 -0 -5 -1 -12
-49 -71 -39 -21 -33 -29 -29 -24 -17 -13 -20 -42 -53 -84 -102 -123 -79 -48 -66 -51 -67 -34 -47 -24 -25 -33 -35 -26 -14 -4 -8 -10 -19 -25 -14 -8 -3 -4 -19 -26 -0 -0 -0
-34 -43 -30 -23 -22 -20 -32 -28 -17 -37 -25 -28 -96 -97 -115 -107 -116 -105 -67 -63 -60 -52 -30 -26 -10 -21 -34 -23 -18 -20 -10 -13 -10 -0 -8 -11 -10 -2 -5 -50 -2 -28 -38
-29 -33 -25 -27 -28 -17 -15 -30 -48 -67 -62 -44 -96 -125 -77 -105 -108 -145 -93 -78 -93 -70 -58 -20 -17 -20 -21 -27 -11 -36 -48 -40 -34 -51 -65 -46 -22 -16 -0 -6 -11 -20 -5
-32 -34 -30 -26 -48 -17 -12 -17 -35 -80 -33 -47 -42 -39 -82 -72 -83 -126 -146 -136 -141 -80 -50 -49 -19 -10 -19 -2 -0 -15 -35 -38 -40 -81 -82 -99 -119 -31 -21 -1 -11 -0 -2
-37 -42 -37 -26 -68 -13 -13 -18 -33 -21 -24 -7 -18 -51 -35 -38 -114 -108 -82 -82 -56 -40 -24 -94 -31 -0 -17 -13 -7 -8 -16 -6 -7 -37 -53 -80 -89 -91 -32 -15 -0 -2 -0
-49 -41 -36 -43 -66 -34 -10 -15 -25 -24 -3 -18 -5 -22 -4 -0 -20 -59 -31 -52 -4 -3 -26 -30 -33 -22 -19 -26 -15 -5 -7 -0 -2 -9 -43 -68 -86 -98 -88 -28 -22 -0 -0
-48 -46 -47 -46 -46 -34 -32 -12 -23 -35 -15 -0 -41 -73 -58 -49 -2 -1 -57 -10 -61 -25 -8 -8 -7 -27 -21 -26 -45 -15 -9 -3 -4 -10 -16 -42 -80 -91 -85 -67 -15 -7 -1
-79 -81 -50 -38 -34 -25 -36 -30 -13 -16 -18 -8 -26 -38 -55 -39 -1 -0 -2 -20 -30 -2 -4 -22 -9 -36 -28 -39 -7 -8 -30 -3 -3 -16 -5 -10 -29 -48 -77 -77 -27 -0 -5
-30 -58 -52 -50 -41 -34 -42 -46 -22 -10 -18 -15 -25 -41 -107 -45 -1 -0 -0 -1 -3 -2 -16 -17 -11 -6 -3 -2 -7 -17 -7 -3 -6 -3 -14 -10 -11 -14 -39 -89 -65 -0 -7
-20 -32 -52 -45 -34 -36 -32 -38 -28 -21 -13 -7 -9 -9 -4 -0 -1 -0 -0 -0 -3 -2 -25 -7 -11 -1 -2 -0 -0 -2 -4 -8 -7 -8 -11 -8 -10 -21 -52 -61 -62 -1 -0
-24 -43 -59 -63 -56 -32 -30 -24 -13 -15 -14 -7 -14 -17 -25 -0 -0 -0 -6 -0 -0 -0 -0 -0 -0 -2 -0 -0 -2 -6 -4 -1 -7 -3 -14 -15 -55 -50 -56 -55 -61 -32 -0
-48 -59 -53 -43 -36 -34 -24 -19 -11 -16 -23 -24 -27 -70 -29 -7 -8 -0 -1 -1 -0 -0 -0 -0 -0 -0 -2 -1 -3 -9 -41 -2 -5 -2 -5 -0 -0 -22 -34 -10 -34 -41 -14
-80 -63 -50 -36 -37 -26 -26 -33 -33 -29 -25 -12 -18 -21 -6 -41 -46 -10 -4 -0 -0 -0 -0 -0 -0 -0 -5 -0 -0 -13 -18 -29 -2 -18 -0 -0 -0 -0 -29 -3 -10 -37 -25
-83 -64 -79 -68 -51 -44 -41 -41 -11 -1 -0 -6 -22 -9 -12 -13 -69 -17 -18 -6 -6 -0 -0 -0 -0 -0 -1 -0 -0 -16 -2 -0 -2 -34 -0 -0 -0 -17 -0 -14 -4 -16 -24
-54 -58 -53 -61 -55 -45 -18 -0 -2 -4 -6 -4 -2 -0 -0 -21 -46 -42 -30 -0 -0 -0 -1 -0 -0 -0 -0 -0 -0 -4 -7 -0 -0 -9 -0 -0 -0 -0 -13 -6 -3 -0 -9
-48 -47 -50 -40 -11 -0 -5 -9 -10 -16 -4 -1 -0 -0 -0 -4 -27 -16 -20 -49 -0 -0 -10 -0 -0 -0 -0 -0 -0 -0 -0 -15 -0 -12 -0 -0 -0 -0 -0 -0 -0 -0 -0
-63 -67 -23 -27 -41 -34 -21 -14 -5 -0 -0 -0 -0 -0 -0 -0 -14 -6 -24 -34 -7 -0 -0 -0 -0 -0 -0 -1 -3 -1 -0 -0 -0 -4 -1 -2 -0 -0 -0 -0 -0 -0 -0
-63 -83 -89 -70 -49 -30 -78 -85 -60 -57 -25 -18 -5 -0 -3 -21 -3 -16 -38 -34 -0 -0 -0 -0 -0 -0 -0 -9 -5 -0 -0 -0 -0 -6 -0 -0 -0 -0 -0 -0 -0 -0 -0
-83 -134 -85 -81 -128 -115 -105 -79 -72 -90 -8 -3 -17 -18 -77 -35 -13 -5 -25 -46 -0 -0 -4 -0 -0 -0 -0 -0 -0 -13 -6 -0 -0 -5 -2 -0 -0 -0 -0 -0 -0 -0 -0
-105 -100 -111 -143 -192 -147 -84 -77 -84 -39 -103 -118 -156 -169 -103 -52 -4 -8 -20 -32 -54 -0 -5 -0 -0 -0 -0 -0 -0 -1 -0 -0 -0 -4 -1 -0 -3 -0 -0 -0 -0 -0 -0
-101 -30 -58 -185 -199 -131 -94 -85 -79 -84 -89 -120 -209 -324 -163 -53 -27 -31 -10 -32 -20 -11 -7 -0 -0 -0 -0 -0 -0 -1 -3 -0 -0 -0 -0 -0 -4 -0 -0 -0 -0 -0 -0
-20 -4 -54 -363 -287 -204 -143 -132 -84 -108 -166 -97 -147 -238 -175 -105 -87 -126 -31 -45 -16 -11 -0 -0 -0 -0 -0 -0 -0 -1 -0 -0 -0 -1 -1 -0 -0 -0 -0 -0 -0 -0 -0
-4 -39 -108 -0 -389 -313 -270 -167 -109 -93 -174 -152 -133 -273 -220 -160 -32 -29 -29 -12 -6 -0 -0 -0 -0 -0 -0 -0 -0 -0 -0 -0 -0 -3 -8 -0 -0 -0 -0 -0 -0 -0 -0
Wind_Speed
10 10 9 12 12 11 11 11 12 14 14 16 18 19 21 25 29 27 22 25 18 18 19 20 17 17 11 8 7 9 10 11 17 21 20 16 14 14 8 11 14 10 8
9 9 8 9 10 10 8 9 10 8 10 14 16 15 18 23 29 31 23 17 24 17 18 20 19 18 14 12 13 13 13 19 22 24 23 22 20 15 13 12 14 12 11
9 8 6 8 8 8 5 5 6 7 10 13 13 14 17 22 27 31 28 17 12 18 18 24 23 20 18 16 16 18 23 30 32 29 30 27 27 23 23 16 12 9 15
11 8 7 4 4 6 3 5 7 9 10 12 11 14 16 15 20 28 25 10 13 17 19 23 29 24 18 19 19 20 27 31 37 35 40 33 28 27 29 30 21 16 17
10 9 6 6 5 6 6 8 9 9 11 12 14 16 16 18 22 21 23 16 19 18 21 25 28 24 21 19 19 25 33 40 37 38 41 39 36 31 27 29 26 26 18
7 6 6 5 5 7 7 10 11 13 12 13 14 20 21 22 20 19 21 20 25 26 18 20 23 24 28 18 26 24 30 36 36 36 38 34 39 40 29 29 30 33 24
7 6 3 4 6 9 8 10 11 12 13 14 16 19 23 28 28 25 24 28 nan nan 24 25 18 20 28 23 26 32 34 33 36 35 40 31 37 37 37 28 31 27 24
6 7 7 7 7 9 11 12 12 13 16 16 18 18 20 27 27 29 33 35 nan 19 nan nan 15 20 22 20 27 35 36 34 36 35 33 32 34 31 32 36 23 23 28
6 9 10 10 11 10 11 12 13 15 15 21 22 21 20 23 26 nan nan nan 20 23 29 8 19 24 19 19 22 34 46 40 37 37 28 nan nan nan 26 31 34 24 28
6 8 9 10 10 11 11 13 15 17 21 18 23 31 33 29 30 26 29 nan nan 20 37 19 21 26 23 25 28 35 41 39 36 39 25 nan nan nan nan 25 34 24 28
5 8 9 10 11 13 14 15 18 21 26 29 33 36 39 34 27 33 18 nan nan nan 36 24 nan 28 30 33 34 35 37 45 39 25 18 19 27 nan nan nan 34 24 23
8 11 11 12 10 10 13 16 20 25 30 33 34 37 nan nan nan 34 nan nan nan nan 39 nan 35 34 35 37 38 42 42 32 26 20 14 21 22 21 19 nan 29 25 26
10 12 12 11 9 9 13 17 20 23 26 30 35 45 nan nan nan nan nan nan nan nan nan 20 nan nan nan 38 41 35 30 29 25 22 23 27 23 26 nan 23 nan 32 25
10 10 10 10 12 13 15 16 20 23 28 30 30 37 33 nan nan 41 nan nan nan nan nan 40 nan nan 44 42 40 32 31 27 28 32 29 nan nan nan nan nan 29 40 39
6 9 11 11 13 14 16 16 18 22 26 24 24 31 30 36 45 25 nan nan nan nan 35 nan nan nan 47 nan 37 20 19 nan nan nan nan nan nan nan nan nan 33 37 37
13 12 13 15 16 17 16 16 17 21 24 25 26 27 30 35 36 33 nan nan nan nan 35 nan nan nan nan nan 31 12 14 13 nan nan nan nan nan nan nan nan 32 nan 40
13 13 13 12 13 14 16 17 18 15 19 22 24 30 29 33 35 33 nan nan nan nan 40 nan nan nan nan 44 26 nan 8 12 10 nan nan nan nan nan nan nan nan nan 51
13 12 11 12 13 14 15 16 15 17 17 18 20 25 24 30 36 35 34 39 40 35 nan nan nan nan nan 39 27 18 14 8 7 nan nan nan nan nan nan nan nan nan nan
13 11 12 12 12 12 13 16 16 16 17 20 22 23 22 27 34 36 35 36 37 35 nan nan nan nan nan nan 28 17 15 9 nan nan nan nan nan nan nan nan nan nan nan
14 11 11 11 12 13 15 16 16 18 20 21 23 25 25 27 32 33 32 34 36 nan nan nan nan nan nan nan nan nan nan nan nan nan nan nan nan nan nan nan nan nan nan
13 14 13 13 12 14 17 15 20 21 22 21 21 25 28 27 29 34 34 37 nan nan nan nan nan nan nan nan nan nan nan 14 13 nan 17 nan nan nan nan nan nan nan nan
18 18 16 15 17 16 13 16 21 24 24 24 24 26 31 31 37 40 39 41 nan nan nan nan nan nan nan nan nan nan nan nan nan nan nan nan nan nan nan nan nan nan nan
22 22 23 24 22 19 12 18 26 27 28 29 28 29 32 34 38 41 43 37 nan nan nan nan nan nan nan nan nan nan nan nan nan nan nan nan nan nan nan nan nan nan nan
24 25 27 27 26 22 16 19 24 33 31 31 29 nan 32 34 33 42 42 34 26 nan nan nan nan nan nan nan nan nan nan nan nan nan nan nan nan nan nan nan nan nan nan
27 28 29 30 30 29 24 26 28 32 31 32 31 nan 34 35 34 nan 41 nan nan nan nan nan nan nan nan nan nan nan nan nan nan nan nan nan nan nan nan nan nan nan nan
31 31 nan nan nan nan 31 32 30 34 32 31 33 nan nan nan 39 37 38 nan nan nan nan nan nan nan nan nan nan nan nan nan nan nan nan nan nan nan nan nan nan nan nan
Wind_Direction
80 84 91 84 85 77 68 61 44 36 26 23 22 18 15 5 356 345 343 348 352 352 333 324 320 317 306 286 291 277 290 288 279 282 289 284 292 293 294 254 256 270 220
92 95 88 79 74 69 67 58 46 28 21 8 5 3 6 358 351 354 343 332 352 336 319 315 328 314 315 308 279 268 267 277 280 266 273 272 272 279 279 274 239 259 285
70 79 85 76 62 40 33 6 9 2 360 3 2 355 5 2 355 353 346 327 328 331 330 316 306 303 310 300 287 279 273 266 265 268 266 267 268 263 266 270 280 250 256
54 56 51 20 23 15 350 355 354 4 355 351 342 347 355 3 5 1 355 338 315 299 313 313 300 301 303 301 290 288 278 275 271 268 275 259 266 266 267 264 262 237 242
59 53 40 23 27 335 333 340 337 343 350 337 337 326 328 329 334 342 355 321 295 291 298 313 307 297 308 304 292 279 274 279 279 273 276 262 256 260 270 272 264 244 237
72 45 36 15 351 325 335 322 335 333 334 315 322 310 312 313 319 323 331 324 314 293 294 297 302 301 307 292 298 289 285 287 284 277 286 252 251 249 257 259 269 257 267
32 1 5 2 338 329 327 323 326 316 309 300 306 311 311 314 315 310 315 313 nan nan 292 298 282 334 319 290 281 305 296 302 289 286 282 247 252 246 240 250 257 251 252
1 1 0 354 344 335 328 318 315 316 310 306 305 315 310 315 310 301 309 312 nan 304 nan nan 290 342 327 301 290 311 322 309 295 292 284 250 247 236 238 238 233 241 234
6 4 360 349 343 336 315 321 326 328 318 314 308 317 313 305 305 nan nan nan 327 329 13 315 333 354 354 326 319 316 318 312 309 301 294 nan nan nan 233 233 218 230 219
5 358 347 343 339 328 337 345 336 335 325 319 317 309 303 306 307 312 314 nan nan 323 359 338 350 349 341 328 321 314 317 313 307 302 304 nan nan nan nan 229 213 216 223
289 328 327 333 348 349 354 355 347 337 330 331 332 331 356 340 347 356 334 nan nan nan 351 348 nan 339 330 325 320 311 319 304 301 299 292 252 236 nan nan nan 217 219 217
299 323 334 335 336 338 343 350 350 346 343 341 339 347 nan nan nan 358 nan nan nan nan 355 nan 347 341 330 329 319 311 311 309 304 295 245 232 227 213 215 nan 195 208 206
322 321 328 335 338 345 350 355 354 353 346 346 344 355 nan nan nan nan nan nan nan nan nan 341 nan nan nan 330 327 305 287 282 279 271 242 224 223 206 nan 195 nan 184 194
327 325 328 333 357 4 358 349 348 350 353 350 357 349 351 nan nan 356 nan nan nan nan nan 342 nan nan 338 333 331 306 287 280 272 265 228 nan nan nan nan nan 176 179 190
328 336 323 330 350 355 349 339 343 345 340 345 341 343 351 349 360 9 nan nan nan nan 342 nan nan nan 341 nan 329 303 332 nan nan nan nan nan nan nan nan nan 169 175 184
332 333 338 339 351 1 354 347 341 342 351 351 352 358 354 344 345 358 nan nan nan nan 323 nan nan nan nan nan 334 297 308 272 nan nan nan nan nan nan nan nan 173 nan 177
339 346 348 358 1 352 3 355 340 334 343 341 343 342 351 352 350 350 nan nan nan nan 327 nan nan nan nan 349 358 nan 305 307 257 nan nan nan nan nan nan nan nan nan 182
336 338 345 351 351 349 352 356 345 340 344 346 343 339 341 340 353 351 337 332 344 342 nan nan nan nan nan 358 13 28 30 34 201 nan nan nan nan nan nan nan nan nan nan
332 339 348 1 356 346 346 344 345 344 342 348 351 348 343 335 344 347 347 345 345 345 nan nan nan nan nan nan 16 39 78 139 nan nan nan nan nan nan nan nan nan nan nan
328 335 347 343 342 339 349 341 341 336 340 341 340 341 346 338 339 345 346 347 346 nan nan nan nan nan nan nan nan nan nan nan nan nan nan nan nan nan nan nan nan nan nan
308 315 318 324 326 336 318 333 340 336 330 330 330 330 330 336 337 343 339 343 nan nan nan nan nan nan nan nan nan nan nan 93 125 nan 151 nan nan nan nan nan nan nan nan
280 296 299 299 294 314 323 335 334 330 326 321 323 322 321 325 337 337 335 339 nan nan nan nan nan nan nan nan nan nan nan nan nan nan nan nan nan nan nan nan nan nan nan
283 286 288 289 297 307 318 341 333 323 319 320 316 317 320 319 324 329 328 329 nan nan nan nan nan nan nan nan nan nan nan nan nan nan nan nan nan nan nan nan nan nan nan
289 289 289 293 294 298 293 308 323 318 318 314 315 nan 314 312 315 321 331 336 340 nan nan nan nan nan nan nan nan nan nan nan nan nan nan nan nan nan nan nan nan nan nan
285 284 288 291 291 288 279 287 304 314 315 314 314 nan 310 308 311 nan 320 nan nan nan nan nan nan nan nan nan nan nan nan nan nan nan nan nan nan nan nan nan nan nan nan
285 284 nan nan nan nan 278 281 293 312 312 314 309 nan nan nan 305 303 312 nan nan nan nan nan nan nan nan nan nan nan nan nan nan nan nan nan nan nan nan nan nan nan nan